Miscellaneous Local Product
Issued by NWS North Platte, NE

Home | Current Version | Previous Version | Text Only | Print | Product List | Glossary On
Versions: 1 2 3 4 5 6 7 8 9 10 11 12 13 14 15 16 17 18 19 20 21 22 23 24 25 26 27 28 29 30 31 32 33 34 35 36 37 38 39 40 41 42 43 44 45 46 47 48 49 50
000
AXUS43 KLBF 280410
MISLBF


WESTERN AND NORTH CENTRAL NEBRASKA HOURLY WEATHER ROUNDUP
NATIONAL WEATHER SERVICE NORTH PLATTE NE
1000 PM CST TUE JAN 27 2015

***STATIONS NOT REPORTING VARIABLES SUCH AS SKY/WEATHER OR
PRESSURE ARE PROVIDED BY THE NEBRASKA DEPARTMENT OF
ROADS...RAWS...AND APRS NETWORKS...AND ARE NOT UNDER
NATIONAL WEATHER SERVICE QUALITY CONTROL***

...OBSERVATIONS IN AND NEAR THE EASTERN PANHANDLE OF NEBRASKA...

CITY           SKY/WX    TMP DP  RH WIND       PRES   REMARKS
PINE RIDGE     MOCLDY    36  28  73 SW5       29.89S WCI  32
CHADRON        CLEAR     38  31  76 W5        29.90R WCI  34
ALLIANCE       CLEAR     35  27  72 SW5       29.94S WCI  31
SIDNEY         PTCLDY    39  29  67 NW12      29.97S WCI  32
WHITECLAY        N/A     34  26  74 E6          N/A  WCI  29
CRESCENT LAKE    N/A     48  23  37 CALM        N/A
LISCO            N/A     37  24  58 SW6         N/A  WCI  33
LEWELLEN         N/A     36  28  75 W7          N/A  WCI  30
$$

...OBSERVATIONS IN NORTH CENTRAL NEBRASKA...

CITY           SKY/WX    TMP DP  RH WIND       PRES   REMARKS
VALENTINE      PTCLDY    39  31  72 W7        29.86F WCI  34
THEDFORD       MOCLDY    44  32  62 W5        29.90S
AINSWORTH      PTCLDY    38  30  72 S5        29.86F WCI  35
O`NEILL        CLEAR     42  35  76 S10       29.90S
ORD            CLEAR     37  30  75 CALM      29.90S
BROKEN BOW     PTCLDY    34  28  79 CALM      29.90S
BROWNLEE         N/A     54  30  39 W5          N/A
VALENTINE NWR    N/A     42  30  63 CALM        N/A
SPRINGVIEW       N/A     32  27  82 CALM        N/A
HALSEY           N/A     50  28  43 CALM        N/A
BREWSTER         N/A     40  32  74 CALM        N/A
ROSE             N/A     44  36  72 E7          N/A
NEWPORT          N/A     40  34  80 S6          N/A
SARGENT          N/A     41  33  74 CALM        N/A
COMSTOCK         N/A     45  32  60 S10         N/A
CHAMBERS         N/A     39  32  76 S5G12       N/A
EWING            N/A     38  33  82 SE3         N/A
$$

...OBSERVATIONS IN SOUTHWEST NEBRASKA AND FAR NORTHEAST COLORADO...

CITY           SKY/WX    TMP DP  RH WIND       PRES   REMARKS
WRAY           FAIR      51  31  46 SW9       29.94R
HOLYOKE        FAIR      37  30  75 CALM      29.94S
IMPERIAL       PTCLDY    44  27  51 CALM      29.92F
OGALLALA       PTCLDY    37  29  74 W3        29.91F
NORTH PLATTE   MOCLDY    32  25  75 CALM      29.91S
MCCOOK         MOCLDY    53  30  41 S3        29.90F
LEXINGTON      PTCLDY    39  30  70 SE5       29.91S
BRADY            N/A     37  28  71 CALM        N/A
GOTHENBURG       N/A     40  26  57 CALM        N/A
CALLAWAY         N/A     45  31  58 CALM        N/A
$$

...NORTH PLATTE AREA...

CITY           SKY/WX    TMP DP  RH WIND       PRES   REMARKS
AIRPORT        MOCLDY    32  25  75 CALM      29.91S
DOWNTOWN         N/A     44  29  55 CALM        N/A
$$

...SOME WEATHER OBSERVATIONS FROM AROUND THE REGION...

CITY           SKY/WX    TMP DP  RH WIND       PRES   REMARKS
DENVER         PTCLDY    45  29  53 W8        30.00F
LARAMIE        MOCLDY    36  22  56 CALM      30.12F
CHEYENNE       CLEAR     44  22  41 W14       30.04F
SCOTTSBLUFF      N/A    N/A N/A N/A MISG      29.96S
RAPID CITY     MOCLDY    50  27  40 SW6       29.82F
PIERRE         PTCLDY    41  34  76 E3        29.81S
WINNER         FAIR      46  35  65 S10       29.83F
SIOUX FALLS    CLEAR     37  32  82 SE13      29.95F WCI  29
OMAHA          CLEAR     40  30  67 S15       30.03F WCI  32
GRAND ISLAND   PTCLDY    41  31  67 SE8       29.93F
KANSAS CITY    CLEAR     42  32  67 SE13      30.07F
WICHITA        CLEAR     52  35  52 S9        29.98S
HAYS           PTCLDY    54  28  37 SW8       29.93F
LIBERAL        PTCLDY    46  28  49 SW10      30.03F
GOODLAND       MOCLDY    53  28  38 S9        29.94F
$$



USA.gov is the U.S. government's official web portal to all federal, state and local government web resources and services.